sat.trackr.live / text

‹ back to catalog

CENTISPACE-1 S16

NORAD 62585 · 2025-007L

PAYLOAD ACTIVE UNKNOWN

§ Identity

Operator
Country
PRC
Launch date
2025-01-13
Launch site
YSLA
Launch vehicle
Mass (kg)
RCS (m²)

External: N2YO · Heavens-Above · Gunter

§ Orbital elements

Epoch: 2026-05-25T03:51:39.468672Z

Period
104.30 min
Inclination
54.9895°
Eccentricity
0.0013643
Mean motion
13.80608397 rev/d
Perigee alt
951.7 km
Apogee alt
971.7 km
Semi-major
7,339.9 km
B*
9.7092e-5
RAAN
11.7982°
Arg perigee
49.5258°
Mean anomaly
310.6885°
Rev number
7,153

§ Raw data

CENTISPACE-1 S161 62585U 25007L   26145.16087348 -.00000038  00000+0  97092-4 0  99972 62585  54.9895  11.7982 0013643  49.5258 310.6885 13.80608397 71538

JSON: /api/v1/satellites/62585 · /tle

For live sub-satellite position, see the globe view (requires WebGL).

§ Visibility from observer

Set your observer location to see the next 7 days of passes ≥ 10°. The values pass through the URL so the page stays shareable.

No JS? Fill the form by hand. The geolocation button needs JavaScript.

§ Radio — SatNOGS DB

ModeDescriptionDownlinkUplink
BPSK S-band telemetry 2.222 GHz

1 transmitter · refreshed weekly from db.satnogs.org